Weather observations for the past three days for
Fletcher Field, Clarksdale
Imperial (Metric)
Date Time (cdt) Wind (mph) Vis. (mi.) Weather Sky Cond. Temperature (ºF) Relative Humidity Wind Chill (°F) Heat Index (°F) Pressure Precipitation (in)
Air Dwpt 6 hour altimeter (in) sea level (mb) 1 hr 3 hr 6 hr
Max. Min.
08 08:15 E 6 10.00 NULL NULL 0 0 0% 30.04 0.0
08 07:55 Calm 10.00 NULL NULL 0 0 0% 30.04 0.0
08 07:35 Calm 10.00 NULL NULL 0 0 0% 30.05 0.0
08 07:15 Calm 10.00 NULL NULL 0 0 0% 30.05 0.0
08 06:55 Calm 10.00 NULL NULL 0 0 0% 30.04 0.0
08 06:35 Calm 9.00 NULL NULL 0 0 0% 30.04 0.0
08 06:15 Calm 7.00 NULL NULL 0 0 0% 30.02 0.0
08 05:55 Calm 9.00 NULL NULL 0 0 0% 30.02 0.0
08 05:35 Calm 10.00 NULL NULL 0 0 0% 30.02 0.0
08 05:15 Calm 9.00 NULL NULL 0 0 0% 30.02 0.0
08 04:55 Calm 10.00 NULL NULL 0 0 0% 30.02 0.0
08 04:35 Calm 10.00 NULL NULL 0 0 0% 30.02 0.0
08 04:15 N 3 9.00 NULL NULL 0 0 0% 30.01 0.0
08 03:55 Calm 1.75 Fog/Mist NULL 0 0 0% 30.01 0.0
08 03:35 Calm 6.00 Haze NULL 0 0 0% 30.01 0.0
08 03:15 Calm 6.00 Haze NULL 0 0 0% 30.01 0.0
08 02:55 Calm 9.00 NULL NULL 0 0 0% 30.01 0.0
08 02:35 Calm 9.00 NULL NULL 0 0 0% 30.01 0.0
08 02:15 Calm 10.00 NULL NULL 0 0 0% 30.01 0.0
08 01:55 Calm 8.00 NULL NULL 0 0 0% 30.01 0.0
08 01:35 Calm 10.00 NULL NULL 0 0 0% 30.02 0.0
08 01:15 Calm 10.00 NULL NULL 0 0 0% 30.02 0.0
08 00:55 Calm 10.00 NULL NULL 0 0 0% 30.02 0.0
08 00:35 Calm 10.00 NULL NULL 0 0 0% 30.03 0.0
08 00:15 Calm 10.00 NULL NULL 0 0 0% 30.03 0.0
07 23:55 Calm 10.00 NULL NULL 0 0 0% 30.02 0.0
07 23:35 Calm 10.00 NULL NULL 0 0 0% 30.02 0.0
07 23:15 Calm 9.00 NULL NULL 0 0 0% 30.02 0.0
07 22:55 Calm 10.00 NULL NULL 0 0 0% 30.04 0.0
07 22:35 Calm 10.00 NULL NULL 0 0 0% 30.03 0.0
07 22:15 Calm 10.00 NULL NULL 0 0 0% 30.04 0.0
07 21:55 Calm 10.00 NULL NULL 0 0 0% 30.04 0.0
07 21:35 Calm 10.00 NULL NULL 0 0 0% 30.03 0.0
07 21:15 Calm 10.00 NULL NULL 0 0 0% 30.02 0.0
07 20:55 Calm 10.00 NULL NULL 0 0 0% 30.02 0.0
07 20:35 Calm 10.00 NULL NULL 0 0 0% 30.01 0.0
07 20:15 Calm 10.00 NULL NULL 0 0 0% 30.01 0.0
07 19:55 Calm 10.00 NULL NULL 0 0 0% 30 0.0
07 19:35 N 6 10.00 NULL NULL 0 0 0% 30 0.0
07 19:15 Calm 10.00 NULL NULL 0 0 0% 30 0.0
07 18:55 Calm 10.00 NULL NULL 0 0 0% 30 0.0
07 18:35 N 3 10.00 NULL NULL 0 0 0% 30 0.0
07 18:15 NW 5 10.00 NULL NULL 0 0 0% 30.01 0.0
07 17:55 Calm 10.00 NULL NULL 0 0 0% 30.01 0.0
07 17:35 N 6 10.00 NULL NULL 0 0 0% 30.01 0.0
07 17:15 Calm 10.00 NULL NULL 0 0 0% 30 0.0
07 16:55 N 6 G 12 10.00 NULL NULL 0 0 0% 30 0.0
07 16:35 N 6 10.00 NULL NULL 0 0 0% 30 0.0
07 16:15 N 7 10.00 NULL NULL 0 0 0% 30.01 0.0
07 15:15 Vrbl 5 G 12 10.00 NULL NULL 0 0 0% 30.01 0.0
07 14:55 NW 6 G 13 10.00 NULL NULL 0 0 0% 30.02 0.0
07 14:35 NW 5 G 12 10.00 NULL NULL 0 0 0% 30.03 0.0
07 14:15 NW 8 10.00 NULL NULL 0 0 0% 30.04 0.0
07 13:55 Vrbl 7 10.00 NULL NULL 0 0 0% 30.04 0.0
07 13:35 NE 6 G 16 10.00 NULL NULL 0 0 0% 30.04 0.0
07 13:15 N 13 10.00 NULL NULL 0 0 0% 30.05 0.0
07 12:55 NW 9 10.00 NULL NULL 0 0 0% 30.05 0.0
07 12:35 N 9 G 18 10.00 NULL NULL 0 0 0% 30.05 0.0
07 12:15 N 9 G 17 10.00 NULL NULL 0 0 0% 30.06 0.0
07 11:55 N 9 G 16 10.00 NULL NULL 0 0 0% 30.06 0.0
07 11:35 N 10 G 18 10.00 NULL NULL 0 0 0% 30.06 0.0
07 11:15 N 10 10.00 NULL NULL 0 0 0% 30.07 0.0
07 10:55 N 10 G 16 10.00 NULL NULL 0 0 0% 30.08 0.0
07 10:35 N 10 G 17 10.00 NULL NULL 0 0 0% 30.07 0.0
07 10:15 N 8 G 15 10.00 NULL NULL 0 0 0% 30.07 0.0
07 09:55 N 13 10.00 NULL NULL 0 0 0% 30.07 0.0
07 09:35 N 12 G 18 10.00 NULL NULL 0 0 0% 30.08 0.0
07 09:15 N 13 10.00 NULL NULL 0 0 0% 30.08 0.0
07 08:55 N 12 10.00 NULL NULL 0 0 0% 30.07 0.0
07 08:35 N 12 10.00 NULL NULL 0 0 0% 30.07 0.0
07 08:15 N 12 10.00 NULL NULL 0 0 0% 30.06 0.0
07 07:55 N 13 10.00 NULL NULL 0 0 0% 30.05 0.0
07 07:35 N 12 10.00 NULL NULL 0 0 0% 30.05 0.0
07 07:15 N 9 10.00 NULL NULL 0 0 0% 30.05 0.0
07 06:55 N 6 10.00 NULL NULL 0 0 0% 30.03 0.0
07 06:35 N 5 10.00 NULL NULL 0 0 0% 30.02 0.0
07 06:15 NW 6 10.00 NULL NULL 0 0 0% 30.02 0.0
07 05:55 N 7 10.00 NULL NULL 0 0 0% 30.01 0.0
07 05:35 NW 6 G 12 10.00 NULL NULL 0 0 0% 30.01 0.0
07 05:15 N 8 10.00 NULL NULL 0 0 0% 30 0.0
07 04:55 N 8 10.00 NULL NULL 0 0 0% 30 0.0
07 04:35 N 9 10.00 NULL NULL 0 0 0% 29.99 0.0
07 04:15 N 8 10.00 NULL NULL 0 0 0% 29.99 0.0
07 03:55 N 7 10.00 NULL NULL 0 0 0% 30 0.0
07 03:35 N 7 10.00 NULL NULL 0 0 0% 29.99 0.0
07 03:15 N 7 10.00 NULL NULL 0 0 0% 30 0.0
07 02:55 N 7 10.00 NULL NULL 0 0 0% 30 0.0
07 02:35 N 6 10.00 NULL NULL 0 0 0% 30 0.0
07 02:15 N 9 10.00 NULL NULL 0 0 0% 29.99 0.0
07 01:55 N 9 10.00 NULL NULL 0 0 0% 30 0.0
07 01:35 N 10 10.00 NULL NULL 0 0 0% 30 0.0
07 01:15 N 8 10.00 NULL NULL 0 0 0% 30 0.0
07 00:55 N 8 10.00 NULL NULL 0 0 0% 30.01 0.0
07 00:35 N 10 10.00 NULL NULL 0 0 0% 30 0.0
07 00:15 N 9 10.00 NULL NULL 0 0 0% 29.99 0.0
06 23:55 N 8 10.00 NULL NULL 0 0 0% 29.99 0.0
06 23:35 N 9 10.00 NULL NULL 0 0 0% 29.99 0.0
06 23:15 N 9 G 16 10.00 NULL NULL 0 0 0% 29.98 0.0
06 22:55 N 8 10.00 NULL NULL 0 0 0% 29.98 0.0
06 22:35 N 8 10.00 NULL NULL 0 0 0% 29.99 0.0
06 22:15 N 10 10.00 NULL NULL 0 0 0% 29.99 0.0
06 21:55 N 14 10.00 NULL NULL 0 0 0% 29.98 0.0
06 21:35 N 12 G 17 10.00 NULL NULL 0 0 0% 29.99 0.0
06 21:15 N 16 10.00 NULL NULL 0 0 0% 29.97 0.0
06 20:55 N 13 G 18 10.00 NULL NULL 0 0 0% 29.96 0.0
06 20:35 N 9 10.00 NULL NULL 0 0 0% 29.95 0.0
06 20:15 N 12 10.00 NULL NULL 0 0 0% 29.96 0.0
06 19:55 N 10 G 17 10.00 NULL NULL 0 0 0% 29.95 0.0
06 19:35 N 13 G 20 10.00 NULL NULL 0 0 0% 29.94 0.0
06 19:15 N 12 10.00 NULL NULL 0 0 0% 29.95 0.0
06 18:55 N 14 10.00 NULL NULL 0 0 0% 29.96 0.0
06 18:35 N 13 10.00 NULL NULL 0 0 0% 29.95 0.0
06 18:15 N 13 10.00 NULL NULL 0 0 0% 29.94 0.0
06 17:55 N 13 10.00 NULL NULL 0 0 0% 29.94 0.0 0.01
06 17:35 N 12 10.00 NULL NULL 0 0 0% 29.93 0.0
06 17:15 N 15 10.00 NULL NULL 0 0 0% 29.93 0.0
06 16:55 N 12 G 17 10.00 NULL NULL 0 0 0% 29.93 0.0
06 16:35 N 14 10.00 NULL NULL 0 0 0% 29.9 0.0
06 16:15 N 14 10.00 NULL NULL 0 0 0% 29.92 0.0
06 15:55 N 15 10.00 NULL NULL 0 0 0% 29.92 0.0
06 15:35 N 12 9.00 NULL NULL 0 0 0% 29.96 0.0
06 14:55 NW 13 G 21 9.00 NULL NULL 0 0 0% 29.99 0.0
06 14:35 NW 14 G 21 10.00 NULL NULL 0 0 0% 30 0.0
06 14:15 N 14 10.00 NULL NULL 0 0 0% 29.98 0.0
06 13:55 N 14 10.00 NULL NULL 0 0 0% 29.97 0.0
06 13:35 N 16 10.00 NULL NULL 0 0 0% 29.98 0.0
06 13:15 N 14 10.00 NULL NULL 0 0 0% 29.97 0.0
06 12:55 N 12 10.00 NULL NULL 0 0 0% 29.96 0.0
06 12:35 N 9 G 17 9.00 NULL NULL 0 0 0% 29.96 0.0
06 12:15 NW 10 G 18 5.00 Haze NULL 0 0 0% 29.98 0.0
06 11:55 N 14 3.00 Fog/Mist NULL 0 0 0% 29.97 0.0
06 11:35 N 15 9.00 NULL NULL 0 0 0% 29.97 0.0
06 11:15 NW 14 5.00 Haze NULL 0 0 0% 29.97 0.0
06 10:55 N 17 10.00 NULL NULL 0 0 0% 29.95 0.0
06 10:35 N 14 G 20 10.00 NULL NULL 0 0 0% 29.95 0.0
06 10:15 N 14 10.00 NULL NULL 0 0 0% 29.94 0.0
06 09:55 N 14 10.00 NULL NULL 0 0 0% 29.93 0.0 0.03
06 09:35 N 13 8.00 NULL NULL 0 0 0% 29.94 0.0
06 09:15 NW 14 1.50 Fog/Mist NULL 0 0 0% 29.94 0.0
06 08:55 N 14 1.50 Fog/Mist NULL 0 0 0% 29.92 0.0 0.03
06 08:35 N 14 3.00 Fog/Mist NULL 0 0 0% 29.91 0.0
06 08:15 N 10 8.00 NULL NULL 0 0 0% 29.9 0.0
06 07:55 NW 8 10.00 NULL NULL 0 0 0% 29.9 0.0
06 07:35 N 12 10.00 NULL NULL 0 0 0% 29.89 0.0
06 07:15 N 14 10.00 NULL NULL 0 0 0% 29.87 0.0
06 06:55 N 14 10.00 NULL NULL 0 0 0% 29.87 0.0 0.02
06 06:35 N 9 9.00 NULL NULL 0 0 0% 29.87 0.0
06 06:15 N 13 7.00 NULL NULL 0 0 0% 29.86 0.0
06 05:55 NE 8 10.00 NULL NULL 0 0 0% 29.84 0.0 0.55
06 05:35 NE 13 G 22 0.50 Freezing Fog NULL 0 0 0% 29.83 0.0
06 05:15 N 14 G 21 5.00 Haze NULL 0 0 0% 29.84 0.0
06 04:55 N 16 G 24 7.00 NULL NULL 0 0 0% 29.81 0.0
06 04:35 N 16 G 23 8.00 NULL NULL 0 0 0% 29.82 0.0
06 04:15 N 13 G 22 10.00 NULL NULL 0 0 0% 29.81 0.0
06 03:55 N 17 G 26 10.00 NULL NULL 0 0 0% 29.8 0.0
06 03:35 SW 12 10.00 NULL NULL 0 0 0% 29.76 0.0
06 03:15 S 15 G 22 10.00 NULL NULL 0 0 0% 29.74 0.0
06 02:55 SW 15 G 22 0.00 NULL NULL 0 0 0% 29.75 0.0
06 02:35 S 12 G 20 10.00 NULL NULL 0 0 0% 29.75 0.0
06 02:15 S 13 G 22 10.00 NULL NULL 0 0 0% 29.75 0.0
06 01:55 S 15 10.00 NULL NULL 0 0 0% 29.75 0.0
06 01:15 S 17 G 23 10.00 NULL NULL 0 0 0% 29.75 0.0
06 00:55 S 13 G 21 10.00 NULL NULL 0 0 0% 29.76 0.0
06 00:35 S 13 G 21 10.00 NULL NULL 0 0 0% 29.77 0.0
06 00:15 S 14 G 21 10.00 NULL NULL 0 0 0% 29.77 0.0
05 23:55 S 14 G 21 10.00 NULL NULL 0 0 0% 29.75 0.0
05 23:35 S 12 G 20 10.00 NULL NULL 0 0 0% 29.76 0.0
05 23:15 S 12 10.00 NULL NULL 0 0 0% 29.77 0.0
05 22:55 S 9 10.00 NULL NULL 0 0 0% 29.78 0.0
05 22:35 S 12 10.00 NULL NULL 0 0 0% 29.78 0.0
05 22:15 S 9 10.00 NULL NULL 0 0 0% 29.78 0.0
05 21:35 S 10 10.00 NULL NULL 0 0 0% 29.78 0.0
05 21:15 S 10 10.00 NULL NULL 0 0 0% 29.77 0.0
05 20:55 SE 12 10.00 NULL NULL 0 0 0% 29.76 0.0
05 20:35 S 12 0.00 NULL NULL 0 0 0% 29.76 0.0
05 20:15 SE 9 10.00 NULL NULL 0 0 0% 29.75 0.0
05 19:55 SE 9 G 17 10.00 NULL NULL 0 0 0% 29.74 0.0
05 19:35 SE 13 10.00 NULL NULL 0 0 0% 29.73 0.0
05 19:15 SE 12 10.00 NULL NULL 0 0 0% 29.74 0.0
05 18:55 S 13 10.00 NULL NULL 0 0 0% 29.75 0.0
05 18:35 SE 12 G 18 10.00 NULL NULL 0 0 0% 29.75 0.0
05 18:15 S 15 10.00 NULL NULL 0 0 0% 29.76 0.0
05 17:55 S 14 10.00 NULL NULL 0 0 0% 29.76 0.0
05 17:35 S 13 G 23 10.00 NULL NULL 0 0 0% 29.77 0.0
05 17:15 S 16 G 23 10.00 NULL NULL 0 0 0% 29.77 0.0
05 16:55 S 17 G 24 10.00 NULL NULL 0 0 0% 29.77 0.0
05 16:35 S 17 10.00 NULL NULL 0 0 0% 29.76 0.0
05 16:15 S 17 G 24 10.00 NULL NULL 0 0 0% 29.77 0.0
05 15:55 S 17 G 25 10.00 NULL NULL 0 0 0% 29.78 0.0
05 15:35 S 17 10.00 NULL NULL 0 0 0% 29.78 0.0
05 15:15 S 15 10.00 NULL NULL 0 0 0% 29.78 0.0
05 14:55 S 16 10.00 NULL NULL 0 0 0% 29.79 0.0
05 14:35 SE 17 10.00 NULL NULL 0 0 0% 29.79 0.0
05 14:15 S 17 10.00 NULL NULL 0 0 0% 29.79 0.0
05 13:15 S 15 10.00 NULL NULL 0 0 0% 29.81 0.0
05 12:35 S 18 10.00 NULL NULL 0 0 0% 29.81 0.0
05 12:15 S 16 G 25 10.00 NULL NULL 0 0 0% 29.82 0.0
05 11:55 S 16 G 22 10.00 NULL NULL 0 0 0% 29.83 0.0
05 11:35 S 17 10.00 NULL NULL 0 0 0% 29.83 0.0
05 11:15 S 15 10.00 NULL NULL 0 0 0% 29.83 0.0
05 10:55 S 12 G 21 10.00 NULL NULL 0 0 0% 29.83 0.0
05 10:35 S 15 10.00 NULL NULL 0 0 0% 29.83 0.0
05 10:15 S 13 G 21 6.00 Haze NULL 0 0 0% 29.84 0.0
05 09:55 S 15 G 21 9.00 NULL NULL 0 0 0% 29.84 0.0
05 09:35 SE 14 10.00 NULL NULL 0 0 0% 29.84 0.0
05 09:15 S 14 10.00 NULL NULL 0 0 0% 29.84 0.0
05 08:55 S 8 G 15 10.00 NULL NULL 0 0 0% 29.85 0.0
05 08:35 SE 10 10.00 NULL NULL 0 0 0% 29.85 0.0
Date Time (cdt) Wind (mph) Vis. (mi.) Weather Sky Cond. Air Dwpt Max. Min. Relative Humidity Wind Chill (°F) Heat Index (°F) altimeter (in) sea level (mb) 1 hr 3 hr 6 hr
6 hour
Temperature (ºF) Pressure Precipitation (in)